[[{"header":{"parameterUnit":"m.s-1","parameterCategory":1,"la1":30.2991,"la2":30.254,"lo1":-89.0895,"lo2":-89.0444,"dy":0.0017,"dx":0.0017,"nx":28,"ny":28,"refTime":"2024-05-16T03:00:00:Z","depth":0,"parameterNumber":2,"parameterNumberName":"U-component_of_WINDS"},"data":[0,0,0,0,0,0,0,0,0,0,0,0,0,0,0,0,0,0,0,0,0,0,0,0,0,0,0,0,0,0,0,0,0,0,0,0,0,0,0,0,0,0,0,0,0,0,0,0,0,0,0,0,0,0,0,0,0,0,-4.5217,-4.5218,0,-4.5328,-4.5329,-4.533,-4.528,-4.5278,-4.5275,-4.5272,-4.539,-4.5395,-4.5401,0,0,0,0,0,0,0,0,0,0,0,0,0,-4.4965,-4.497,-4.5217,-4.5219,-4.522,-4.5328,-4.5329,-4.5331,-4.5281,-4.5278,-4.5274,-4.5271,-4.5388,-4.5394,-4.5401,0,0,0,0,0,0,0,0,0,0,0,0,0,-4.5075,-4.4971,-4.5217,-4.5208,-4.5208,-4.5327,-4.5329,-4.5331,-4.5282,-4.5278,-4.5273,-4.527,-4.5385,-4.5394,-4.5402,-4.5538,0,0,-4.5428,-4.5432,0,0,0,0,0,0,0,0,-4.5069,-4.5084,-4.5208,-4.5209,-4.5209,-4.5286,-4.5283,-4.5401,-4.5283,-4.5254,-4.5272,-4.5267,-4.5359,-4.5369,-4.5399,-4.5543,-4.5548,-4.5429,-4.5434,-4.5438,-4.544,0,0,0,0,0,0,0,-4.5061,-4.5079,-4.5261,-4.521,-4.5211,-4.5199,-4.521,-4.5305,-4.5328,-4.5256,-4.5253,-4.5266,-4.5358,-4.5391,-4.5402,-4.555,-4.5429,-4.5436,-4.5442,-4.5445,-4.5808,-4.5813,0,0,0,0,0,0,-4.5053,-4.5073,-4.5258,-4.5264,-4.5127,-4.5207,-4.5219,-4.5266,-4.5327,-4.5332,-4.527,-4.5264,-4.5378,-4.5392,-4.5405,-4.5566,-4.5438,-4.5446,-4.5451,-4.5804,-4.5809,-4.5814,0,0,0,0,0,0,-4.5048,-4.507,-4.5253,-4.5168,-4.519,-4.5216,-4.5268,-4.527,-4.5303,-4.5337,-4.5342,-4.5299,-4.5376,-4.5393,-4.5504,-4.5569,-4.545,-4.5457,-4.5798,-4.5805,-4.5812,-4.5889,0,0,0,0,0,0,-4.5041,-4.5069,-4.512,-4.5169,-4.5195,-4.535,-4.5272,-4.5275,-4.5317,-4.531,-4.5366,-4.5371,-4.5374,-4.5492,-4.5513,-4.5579,-4.5464,-4.5793,-4.5802,-4.581,-4.5881,-4.5898,-4.5912,0,0,0,0,0,-4.5032,-4.5139,-4.5123,-4.5145,-4.526,-4.5354,-4.5368,-4.5368,-4.5323,-4.5374,-4.5396,-4.5369,-4.5559,-4.5504,-4.5527,-4.5597,-4.5789,-4.5799,-4.5809,-4.5874,-4.5895,-4.5912,0,0,0,0,0,0,-4.5098,-4.5145,-4.5128,-4.5254,-4.53,-4.5345,-4.541,-4.5391,-4.5452,-4.5443,-4.5441,-4.5454,-4.5569,-4.5594,-4.5531,-4.573,-4.5667,-4.5682,-4.5709,-4.5728,-4.5744,-4.5735,-4.5471,0,0,0,0,0,-4.5127,-4.5199,-4.5236,-4.5344,-4.5367,-4.5385,-4.5426,-4.5422,-4.547,-4.549,-4.552,-4.5569,-4.5639,-4.5686,-4.5753,-4.5885,-4.5896,-4.5945,-4.596,-4.5973,-4.5986,-4.6055,-4.6077,-4.5848,-4.5848,-4.5847,0,0,-4.5188,-4.5223,-4.5268,-4.5358,-4.5393,-4.5467,-4.5402,-4.5484,-4.5539,-4.5503,-4.5608,-4.5632,-4.5686,-4.5808,-4.5863,-4.5833,-4.6051,-4.5986,-4.5996,-4.6002,-4.6068,-4.609,-4.6109,-4.5855,-4.5853,-4.5852,0,0,-4.5336,-4.537,-4.5462,-4.5498,-4.5551,-4.5562,-4.5584,-4.5632,-4.5646,-4.5752,-4.5725,-4.5792,-4.5914,-4.5952,-4.5988,-4.615,-4.6126,-4.6172,-4.6253,-4.6321,-4.6339,-4.6355,-4.641,-4.6431,-4.6185,-4.6185,-4.6185,0,-4.5405,-4.5515,-4.5512,-4.5595,-4.5634,-4.5604,-4.5696,-4.5732,-4.5806,-4.5834,-4.5798,-4.5949,-4.5984,-4.6113,-4.6152,-4.6183,-4.6207,-4.6165,-4.6337,-4.6353,-4.6367,-4.642,-4.6441,-4.619,-4.6189,-4.6189,-4.6188,0,-4.5596,-4.5673,-4.574,-4.5809,-4.5857,-4.5945,-4.5955,-4.6004,-4.5996,-4.601,-4.6117,-4.6158,-4.6231,-4.6262,-4.6256,-4.639,-4.6369,-4.6336,-4.6272,-4.6394,-4.6444,-4.6464,-4.6197,-4.6195,-4.6194,-4.6193,0,0,-4.5788,-4.5853,-4.5878,-4.5908,-4.5964,-4.6024,-4.611,-4.618,-4.6221,-4.6273,-4.6344,-4.6447,-4.6415,-4.6456,-4.6454,-4.6514,-4.6637,-4.6473,-4.6474,-4.65,-4.6784,-4.6807,-4.6831,-4.6622,-4.6626,-4.6629,-4.6779,0,-4.5939,-4.6087,-4.6087,-4.6224,-4.6294,-4.6265,-4.634,-4.6383,-4.6399,-4.6461,-4.6479,-4.6551,-4.6506,-4.6529,-4.6588,-4.6609,-4.6693,-4.6599,-4.6688,-4.6691,-4.6672,-4.6857,-4.6883,-4.7022,-4.6799,-4.6802,-4.6804,0,-4.6134,-4.6189,-4.6333,-4.6377,-4.6406,-4.6473,-4.6536,-4.6596,-4.6644,-4.6651,-4.6696,-4.6684,-4.6771,-4.6707,-4.6827,-4.6762,-4.6799,-4.6815,-4.682,-4.6827,-4.6753,-4.6867,-4.7067,-4.7087,-4.6835,-4.6833,-4.6831,0,-4.6256,-4.6367,-4.6467,-4.6494,-4.6549,-4.6596,-4.6621,-4.6665,-4.6706,-4.6762,-4.6789,-4.6855,-4.6891,-4.6942,-4.6949,-4.6901,-4.7069,-4.7005,-4.7077,-4.7076,-4.7112,-4.7109,-4.7318,-4.7139,-4.7139,-4.7139,-4.7138,0,-4.6423,-4.6511,-4.6522,-4.6584,-4.6682,-4.6681,-4.6778,-4.6799,-4.6838,-4.6903,-4.6884,-4.6946,-4.6951,-4.7015,-4.7021,-4.7118,-4.7135,-4.7143,-4.7143,-4.7143,-4.7142,-4.7166,-4.7156,-4.7144,-4.7143,-4.7142,-4.7141,0,-4.6575,-4.6587,-4.6693,-4.6735,-4.6748,-4.6818,-4.6854,-4.6913,-4.6927,-4.7009,-4.7028,-4.705,-4.7124,-4.7135,-4.7223,-4.7227,-4.7342,-4.7334,-4.7325,-4.7323,-4.7393,-4.7386,-4.7623,-4.7654,-4.7457,-4.7459,-4.7461,0,-4.668,-4.6747,-4.6795,-4.6836,-4.6863,-4.6931,-4.6972,-4.6974,-4.7018,-4.7077,-4.7128,-4.7199,-4.7256,-4.7375,-4.7399,-4.7465,-4.7457,-4.7535,-4.7467,-4.7464,-4.7455,-4.745,-4.7456,-4.7548,-4.755,-4.7552,-4.7553,0,-4.6863,-4.6864,-4.6924,-4.6986,-4.7036,-4.7085,-4.7131,-4.7167,-4.7174,-4.7225,-4.7299,-4.7343,-4.7431,-4.7501,-4.7566,-4.7593,-4.7575,-4.7575,-4.7595,-4.7595,-4.7586,-4.7589,-4.7359,-4.7569,-4.7568,-4.7566,-4.7566,-4.7565,-4.6993,-4.705,-4.7093,-4.716,-4.7194,-4.7238,-4.7294,-4.7314,-4.7375,-4.7445,-4.7443,-4.7524,-4.7569,-4.7654,-4.7685,-4.7748,-4.7723,-4.7752,-4.7759,-4.7766,-4.7771,-4.7577,-4.7761,-4.776,-4.776,-4.776,-4.7759,0,-4.7173,-4.7198,-4.726,-4.7324,-4.7377,-4.7354,-4.7404,-4.7449,-4.752,-4.7563,-4.7618,-4.7703,-4.7771,-4.78,-4.7867,-4.7912,-4.7905,-4.7929,-4.7925,-4.793,-4.7791,-4.7766,-4.7933,-4.7933,-4.7933,-4.7933,-4.7933,-4.7933,-4.7272,-4.7367,-4.7374,-4.7486,-4.7511,-4.7588,-4.7618,-4.7658,-4.7692,-4.7786,-4.7842,-4.786,-4.7897,-4.7966,-4.8027,-4.8034,-4.8059,-4.8086,-4.8089,-4.7958,-4.7941,-4.7924,-4.79,-4.8092,-4.8093,-4.8223,-4.8224,-4.8225]},{"header":{"parameterUnit":"m.s-1","parameterCategory":1,"la1":30.2991,"la2":30.254,"lo1":-89.0895,"lo2":-89.0444,"dy":0.0017,"dx":0.0017,"nx":28,"ny":28,"refTime":"2024-05-16T03:00:00:Z","depth":0,"parameterNumber":3,"parameterNumberName":"V-component_of_WINDS"},"data":[0,0,0,0,0,0,0,0,0,0,0,0,0,0,0,0,0,0,0,0,0,0,0,0,0,0,0,0,0,0,0,0,0,0,0,0,0,0,0,0,0,0,0,0,0,0,0,0,0,0,0,0,0,0,0,0,0,0,4.7212,4.7212,0,4.7195,4.7194,4.7194,4.71,4.7097,4.7095,4.7093,4.7076,4.7077,4.7079,0,0,0,0,0,0,0,0,0,0,0,0,0,4.7166,4.7167,4.7212,4.7212,4.7212,4.7195,4.7194,4.7194,4.71,4.7097,4.7095,4.7092,4.7075,4.7077,4.7079,0,0,0,0,0,0,0,0,0,0,0,0,0,4.7171,4.7167,4.7212,4.7163,4.7158,4.7195,4.7194,4.7194,4.7101,4.7097,4.7094,4.7091,4.7074,4.7077,4.7079,4.7162,0,0,4.7087,4.7088,0,0,0,0,0,0,0,0,4.7171,4.7173,4.717,4.7166,4.7161,4.7146,4.7171,4.7183,4.7102,4.7123,4.7093,4.7089,4.7102,4.7102,4.7106,4.7161,4.716,4.7087,4.7088,4.7089,4.709,0,0,0,0,0,0,0,4.717,4.7173,4.7205,4.717,4.7165,4.7142,4.7139,4.7173,4.7131,4.712,4.7114,4.7113,4.7099,4.7104,4.7105,4.716,4.7087,4.7089,4.7091,4.7091,4.7283,4.7287,0,0,0,0,0,0,4.7177,4.7173,4.7206,4.7205,4.7158,4.7146,4.7142,4.7154,4.7131,4.7124,4.7116,4.7108,4.7101,4.7102,4.7104,4.7199,4.7089,4.7092,4.7093,4.728,4.7284,4.7288,0,0,0,0,0,0,4.7176,4.7181,4.7206,4.7187,4.7189,4.715,4.7164,4.7156,4.716,4.7127,4.7119,4.7128,4.7099,4.71,4.7148,4.7197,4.7093,4.7095,4.7276,4.7281,4.7286,4.739,0,0,0,0,0,0,4.7175,4.7181,4.7211,4.7188,4.719,4.7251,4.7167,4.7158,4.7165,4.7155,4.7137,4.7131,4.7096,4.7145,4.7151,4.7198,4.7097,4.7271,4.7278,4.7284,4.7382,4.7399,4.7413,0,0,0,0,0,4.7174,4.7241,4.7213,4.7218,4.7227,4.7254,4.7255,4.7213,4.7169,4.72,4.7179,4.7131,4.7192,4.7151,4.7156,4.7206,4.7268,4.7276,4.7284,4.7375,4.7395,4.7412,0,0,0,0,0,0,4.7271,4.7237,4.7206,4.7268,4.7265,4.7238,4.7275,4.7236,4.7245,4.7235,4.7184,4.7181,4.7236,4.7226,4.7182,4.7285,4.7222,4.7231,4.7289,4.7308,4.7323,4.7323,4.7099,0,0,0,0,0,4.7299,4.7324,4.7293,4.7351,4.7351,4.7314,4.7324,4.7293,4.7287,4.7285,4.7267,4.7264,4.7282,4.7294,4.7309,4.7381,4.7376,4.7418,4.7433,4.7446,4.7454,4.7492,4.751,4.7315,4.7315,4.7315,0,0,4.7358,4.7343,4.7361,4.737,4.7364,4.739,4.7313,4.7344,4.7363,4.729,4.7333,4.7321,4.7314,4.7374,4.74,4.7367,4.7507,4.7456,4.7467,4.7468,4.7502,4.7521,4.7537,4.732,4.7319,4.7319,0,0,4.7479,4.747,4.7517,4.7513,4.7505,4.748,4.7492,4.7472,4.746,4.7504,4.7449,4.7472,4.7504,4.7502,4.7505,4.7628,4.7584,4.7634,4.7712,4.775,4.7765,4.7778,4.7822,4.7838,4.7643,4.7643,4.7643,0,4.7553,4.7591,4.7547,4.7582,4.7587,4.7523,4.757,4.7568,4.7566,4.7571,4.7535,4.7575,4.7565,4.7625,4.7655,4.766,4.7671,4.7635,4.7766,4.7779,4.7791,4.7832,4.7848,4.7649,4.7649,4.7648,4.7647,0,4.7682,4.771,4.7749,4.7748,4.7758,4.78,4.7762,4.7778,4.7747,4.7727,4.7772,4.776,4.7771,4.7783,4.7753,4.7838,4.7818,4.7776,4.771,4.7817,4.7854,4.7869,4.7658,4.7656,4.7654,4.7652,0,0,4.786,4.7837,4.7852,4.7851,4.7838,4.7859,4.7898,4.7909,4.7924,4.7925,4.7956,4.7986,4.7947,4.795,4.792,4.7953,4.8051,4.7905,4.7904,4.7932,4.8144,4.8175,4.8194,4.8023,4.8026,4.8028,4.8144,0,4.7975,4.804,4.8003,4.8073,4.8098,4.8038,4.8073,4.8069,4.8052,4.8071,4.8051,4.8073,4.802,4.8022,4.8052,4.8032,4.8092,4.8024,4.8051,4.8053,4.8053,4.8214,4.8247,4.8357,4.8159,4.8161,4.8163,0,4.8117,4.8125,4.8198,4.8182,4.8191,4.8222,4.823,4.8249,4.8244,4.8229,4.8235,4.8197,4.8234,4.8172,4.8223,4.8178,4.8187,4.818,4.8183,4.8183,4.8113,4.8216,4.8391,4.8407,4.8186,4.8184,4.8182,0,4.8239,4.8268,4.8315,4.8317,4.8299,4.8323,4.8317,4.8309,4.8318,4.8326,4.8332,4.8344,4.835,4.8361,4.8327,4.8285,4.8383,4.8318,4.8372,4.8373,4.8393,4.8392,4.8571,4.8403,4.8402,4.8402,4.8402,0,4.837,4.8417,4.837,4.8399,4.845,4.8408,4.8459,4.8447,4.8441,4.8467,4.8417,4.8443,4.8397,4.8419,4.8393,4.8439,4.8443,4.8432,4.8424,4.8435,4.8437,4.8439,4.843,4.8406,4.8405,4.8405,4.8404,0,4.8513,4.8484,4.8531,4.8512,4.8508,4.8547,4.853,4.8556,4.8537,4.857,4.8576,4.8545,4.8567,4.8536,4.8555,4.8537,4.8601,4.8583,4.8603,4.8597,4.8652,4.8647,4.8837,4.886,4.8679,4.8681,4.8682,0,4.8598,4.8632,4.8617,4.8631,4.8628,4.8651,4.8661,4.8622,4.8634,4.8633,4.866,4.8678,4.8691,4.873,4.8709,4.8724,4.8705,4.8771,4.8706,4.8717,4.8704,4.8702,4.8705,4.8783,4.8785,4.8787,4.8788,0,4.8751,4.8735,4.8751,4.8764,4.8777,4.8785,4.8788,4.8803,4.8762,4.8778,4.8801,4.8811,4.8831,4.885,4.886,4.8854,4.8815,4.8809,4.8822,4.8833,4.8843,4.8837,4.8637,4.8804,4.8803,4.8802,4.8801,4.88,4.8867,4.8895,4.8889,4.8909,4.8908,4.8914,4.8937,4.8922,4.894,4.8953,4.8929,4.8958,4.8954,4.8963,4.8962,4.8984,4.8956,4.8975,4.8979,4.8984,4.8992,4.8841,4.8986,4.8986,4.8985,4.8985,4.8984,0,4.9016,4.901,4.903,4.9037,4.9053,4.9016,4.9019,4.9035,4.9061,4.9061,4.9074,4.9101,4.912,4.9102,4.9117,4.9139,4.9121,4.9144,4.9141,4.914,4.9017,4.9004,4.9158,4.9158,4.9158,4.9158,4.9158,4.9158,4.9096,4.9142,4.9126,4.9172,4.9165,4.9193,4.9198,4.9203,4.9203,4.9235,4.925,4.9239,4.9231,4.9246,4.9262,4.9256,4.9264,4.9293,4.9281,4.9166,4.9149,4.9133,4.912,4.9295,4.9296,4.9401,4.9403,4.9403]}]]